Weather History for Winter Haven, FL

Change the Weather History Date:

Saturday, March 30, 2013

  Actual Average Record
Temperature  
Mean Temperature 64 °F -  
Max Temperature 78 °F 83 °F 93 °F (1949)
Min Temperature 50 °F 60 °F 43 °F (1955)
Degree Days  
Heating Degree Days 1    
Growing Degree Days 14 (Base 50)    
Moisture  
Dew Point 46 °F    
Average Humidity 57    
Maximum Humidity 89    
Minimum Humidity 30    
Precipitation  
Precipitation 0.00 in - - ()
Sea Level Pressure  
Sea Level Pressure 30.23 in    
Wind  
Wind Speed 4 mph (SSW)    
Max Wind Speed 12 mph    
Max Gust Speed -    
Visibility 10 miles    
Events      
Averages and records for this station are not official NWS values.
T = Trace of Precipitation, MM = Missing Value Source: NWS Daily Summary

Daily Weather History Graph

Daily Weather History Graph

Search for Another Location

Airport:

Trip Planner

Search our weather history database for the weather conditions in past years. The results will help you decide how hot, cold, wet, or windy it might be!

Date:

Astronomy

Mar. 30, 2013 Rise Set
Actual Time 7:19 AM EDT 7:43 PM EDT
Civil Twilight 6:55 AM EDT 8:07 PM EDT
Nautical Twilight 6:28 AM EDT 8:35 PM EDT
Astronomical Twilight 6:00 AM EDT 9:03 PM EDT
Moon 11:28 PM EDT (3/30) 9:32 AM EDT (3/30)
Length of Visible Light 13h 11m
Length of Day
12h 24m
Waning Gibbous, 86% of the Moon is Illuminated
Mar 30
Waning Gibbous
Apr 3
Last Quarter
Apr 10
New
Apr 18
First Quarter
Apr 25
Full

Hourly Weather History & Observations

Time (EDT) Temp. Dew Point Humidity Pressure Visibility Wind Dir Wind Speed Gust Speed Precip Events Conditions
12:53 AM 55.0 °F 44.1 °F 67% 30.28 in 10.0 mi Calm Calm - N/A   Clear
1:53 AM 54.0 °F 45.0 °F 72% 30.27 in 10.0 mi Calm Calm - N/A   Clear
2:53 AM 52.0 °F 46.9 °F 83% 30.27 in 10.0 mi Calm Calm - N/A   Clear
3:53 AM 52.0 °F 48.9 °F 89% 30.26 in 10.0 mi Calm Calm - N/A   Clear
4:53 AM 50.0 °F 46.9 °F 89% 30.25 in 10.0 mi NNE 3.5 mph - N/A   Unknown
5:53 AM 51.1 °F 45.0 °F 80% 30.24 in 10.0 mi ENE 3.5 mph - N/A   Clear
6:53 AM 50.0 °F 44.1 °F 80% 30.25 in 10.0 mi Calm Calm - N/A   Clear
7:53 AM 51.1 °F 46.0 °F 83% 30.27 in 10.0 mi Calm Calm - N/A   Clear
8:53 AM 57.9 °F 48.9 °F 72% 30.28 in 10.0 mi ESE 4.6 mph - N/A   Clear
9:53 AM 64.9 °F 50.0 °F 58% 30.29 in 10.0 mi South 6.9 mph - N/A   Clear
10:53 AM 69.1 °F 48.9 °F 49% 30.29 in 10.0 mi South 6.9 mph - N/A   Clear
11:53 AM 72.0 °F 46.0 °F 40% 30.27 in 10.0 mi South 9.2 mph - N/A   Clear
12:53 PM 75.0 °F 45.0 °F 34% 30.25 in 10.0 mi South 11.5 mph - N/A   Clear
1:53 PM 73.0 °F 44.1 °F 35% 30.22 in 10.0 mi SSE 8.1 mph - N/A   Scattered Clouds
2:53 PM 77.0 °F 45.0 °F 32% 30.19 in 10.0 mi West 11.5 mph - N/A   Partly Cloudy
3:53 PM 78.1 °F 44.1 °F 30% 30.17 in 10.0 mi South 9.2 mph - N/A   Scattered Clouds
4:53 PM 77.0 °F 45.0 °F 32% 30.15 in 10.0 mi WSW 9.2 mph - N/A   Partly Cloudy
5:53 PM 77.0 °F 46.0 °F 33% 30.14 in 10.0 mi WSW 8.1 mph - N/A   Clear
6:53 PM 73.9 °F 46.0 °F 37% 30.15 in 10.0 mi West 10.4 mph - N/A   Clear
7:53 PM 71.1 °F 46.0 °F 41% 30.17 in 10.0 mi West 9.2 mph - N/A   Clear
8:53 PM 66.9 °F 46.9 °F 49% 30.19 in 10.0 mi WSW 6.9 mph - N/A   Clear
9:53 PM 64.9 °F 46.9 °F 52% 30.20 in 10.0 mi WSW 3.5 mph - N/A   Clear
10:53 PM 63.0 °F 48.0 °F 58% 30.21 in 10.0 mi North 3.5 mph - N/A   Clear
11:53 PM 62.1 °F 51.1 °F 67% 30.20 in 10.0 mi East 3.5 mph - N/A   Clear